sat.trackr.live / text

‹ back to catalog

STARLINK-34971

NORAD 65256 · 2025-179X

PAYLOAD ACTIVE UNKNOWN

§ Identity

Operator
Country
US
Launch date
2025-08-18
Launch site
AFWTR
Launch vehicle
Mass (kg)
RCS (m²)

Purposes: comms

External: N2YO · Heavens-Above · Gunter

§ Orbital elements

Epoch: 2026-05-25T01:49:27.983712Z

Period
95.64 min
Inclination
97.4505°
Eccentricity
0.0000748
Mean motion
15.05641538 rev/d
Perigee alt
549.0 km
Apogee alt
550.1 km
Semi-major
6,927.7 km
B*
-2.3653e-4
RAAN
187.9156°
Arg perigee
178.8995°
Mean anomaly
181.2234°
Rev number
4,304

§ Raw data

STARLINK-349711 65256U 25179X   26145.07601833 -.00003469  00000+0 -23653-3 0  99992 65256  97.4505 187.9156 0000748 178.8995 181.2234 15.05641538 43049

JSON: /api/v1/satellites/65256 · /tle

For live sub-satellite position, see the globe view (requires WebGL).

§ Visibility from observer

Set your observer location to see the next 7 days of passes ≥ 10°. The values pass through the URL so the page stays shareable.

No JS? Fill the form by hand. The geolocation button needs JavaScript.